Date String (YYYY-MM-DD hh:mm:ss) UTC,Instrument flags,Ambient pressure (hPa),Sample flow (lpm),Bypass flow (lpm),Sample temperature (°C),Ambient temperature (°C),ASC tube jacket temperature (°C),LED temperature (°C),Box temperature (°C),Sample RH (%),Span deviation,Mass concentration (μg/m³),Mass concentration (μg/m³),Mass concentration (μg/m³)
DateTimeUTC,F1_M11,P_M11,Q1_M11,Q2_M11,T1_M11,T2_M11,T3_M11,T4_M11,T5_M11,U1_M11,ZSPAN_M11,X0_M11,X2_M11,X1_M11
2021-12-21 00:00:00,,0825.7,5.00,0.00,27.5,26.6,00.0,36.4,29.3,06.6,0000.0,0000.85,0000.47,0000.38
2021-12-21 00:01:00,,0825.6,4.99,0.00,27.5,26.6,00.0,36.4,29.3,06.6,0000.0,0001.54,0000.46,0000.37
2021-12-21 00:02:00,,0825.7,5.00,0.00,27.5,26.6,00.0,36.4,29.3,06.5,0000.0,0001.54,0000.45,0000.37
2021-12-21 00:03:00,,0825.7,5.00,0.00,27.5,26.6,00.0,36.4,29.3,06.5,0000.0,0001.51,0000.44,0000.36
2021-12-21 00:04:00,,0825.7,5.00,0.00,27.5,26.6,00.0,36.4,29.3,06.5,0000.0,0001.51,0000.43,0000.35
2021-12-21 00:05:00,,0825.7,5.00,0.00,27.5,26.7,00.0,36.4,29.3,06.5,0000.0,0001.49,0000.42,0000.35
2021-12-21 00:06:00,,0825.7,4.99,0.00,27.5,26.6,00.0,36.5,29.3,06.5,0000.0,0001.42,0000.39,0000.34
2021-12-21 00:07:00,,0825.7,5.01,0.00,27.5,26.7,00.0,36.5,29.3,06.4,0000.0,0001.42,0000.40,0000.35
2021-12-21 00:08:00,,0825.8,5.00,0.00,27.5,26.7,00.0,36.5,29.3,06.4,0000.0,0001.45,0000.41,0000.35
2021-12-21 00:09:00,,0825.9,5.00,0.00,27.5,26.7,00.0,36.5,29.3,06.4,0000.0,0001.45,0000.40,0000.34
2021-12-21 00:10:00,,0825.8,5.00,0.00,27.5,26.7,00.0,36.5,29.3,06.4,0000.0,0002.81,0000.41,0000.35
2021-12-21 00:11:00,,0825.9,5.00,0.00,27.5,26.7,00.0,36.5,29.3,06.4,0000.0,0003.04,0000.42,0000.36
2021-12-21 00:12:00,,0826.1,5.01,0.00,27.5,26.7,00.0,36.5,29.3,06.4,0000.0,0003.27,0000.62,0000.38
2021-12-21 00:13:00,,0826.1,5.00,0.00,27.5,26.7,00.0,36.5,29.3,06.4,0000.0,0005.44,0000.91,0000.41
2021-12-21 00:14:00,,0826.0,4.99,0.00,27.5,26.7,00.0,36.5,29.3,06.4,0000.0,0006.49,0001.12,0000.44
2021-12-21 00:15:00,,0825.9,5.01,0.00,27.5,26.7,00.0,36.5,29.3,06.4,0000.0,0007.17,0001.20,0000.45
2021-12-21 00:16:00,,0826.1,5.01,0.00,27.5,26.7,00.0,36.5,29.3,06.4,0000.0,0007.22,0001.22,0000.45
2021-12-21 00:17:00,,0826.0,4.99,0.00,27.5,26.6,00.0,36.5,29.3,06.5,0000.0,0007.21,0001.22,0000.45
2021-12-21 00:18:00,,0826.0,5.01,0.00,27.5,26.6,00.0,36.5,29.3,06.5,0000.0,0007.23,0001.23,0000.44
2021-12-21 00:19:00,,0825.9,5.01,0.00,27.5,26.6,00.0,36.5,29.3,06.5,0000.0,0007.22,0001.22,0000.44
2021-12-21 00:20:00,,0825.7,5.00,0.00,27.5,26.6,00.0,36.5,29.3,06.5,0000.0,0007.19,0001.21,0000.44
2021-12-21 00:21:00,,0825.7,4.99,0.00,27.5,26.6,00.0,36.5,29.2,06.5,0000.0,0005.74,0001.20,0000.44
2021-12-21 00:22:00,,0825.7,5.00,0.00,27.5,26.6,00.0,36.5,29.2,06.4,0000.0,0005.52,0001.20,0000.44
2021-12-21 00:23:00,,0825.7,5.01,0.00,27.5,26.6,00.0,36.5,29.2,06.5,0000.0,0004.33,0000.99,0000.42
2021-12-21 00:24:00,,0825.7,4.98,0.00,27.5,26.6,00.0,36.5,29.2,06.6,0000.0,0002.23,0000.72,0000.39
2021-12-21 00:25:00,,0825.7,5.00,0.00,27.5,26.6,00.0,36.5,29.1,06.6,0000.0,0001.25,0000.53,0000.35
2021-12-21 00:26:00,,0825.7,5.00,0.00,27.5,26.6,00.0,36.5,29.1,06.6,0000.0,0000.75,0000.46,0000.35
2021-12-21 00:27:00,,0826.0,4.99,0.00,27.5,26.6,00.0,36.5,29.1,06.6,0000.0,0001.35,0000.44,0000.35
2021-12-21 00:28:00,,0825.9,5.01,0.00,27.4,26.6,00.0,36.5,29.1,06.6,0000.0,0001.37,0000.45,0000.35
2021-12-21 00:29:00,,0826.1,4.99,0.00,27.4,26.5,00.0,36.5,29.1,06.6,0000.0,0001.37,0000.45,0000.35
2021-12-21 00:30:00,,0825.9,4.99,0.00,27.4,26.5,00.0,36.4,29.0,06.5,0000.0,0001.36,0000.45,0000.36
2021-12-21 00:31:00,,0825.8,4.99,0.00,27.4,26.5,00.0,36.4,29.1,06.5,0000.0,0001.40,0000.46,0000.36
2021-12-21 00:32:00,,0826.0,5.00,0.00,27.4,26.5,00.0,36.4,29.1,06.6,0000.0,0001.39,0000.46,0000.36
2021-12-21 00:33:00,,0825.6,5.01,0.00,27.4,26.5,00.0,36.4,29.1,06.6,0000.0,0001.38,0000.45,0000.35
2021-12-21 00:34:00,,0825.7,4.99,0.00,27.4,26.5,00.0,36.4,29.1,06.6,0000.0,0001.35,0000.44,0000.35
2021-12-21 00:35:00,,0825.6,5.01,0.00,27.4,26.5,00.0,36.4,29.1,06.6,0000.0,0001.26,0000.41,0000.35
2021-12-21 00:36:00,,0825.6,5.00,0.00,27.4,26.5,00.0,36.4,29.1,06.6,0000.0,0001.28,0000.42,0000.36
2021-12-21 00:37:00,,0825.5,4.99,0.00,27.4,26.4,00.0,36.4,29.0,06.6,0000.0,0001.33,0000.44,0000.36
2021-12-21 00:38:00,,0825.5,5.00,0.00,27.4,26.4,00.0,36.4,29.1,06.6,0000.0,0000.69,0000.44,0000.37
2021-12-21 00:39:00,,0825.4,5.01,0.00,27.4,26.4,00.0,36.4,29.1,06.5,0000.0,0000.59,0000.42,0000.36
2021-12-21 00:40:00,,0825.4,4.99,0.00,27.4,26.4,00.0,36.4,29.0,06.5,0000.0,0000.58,0000.41,0000.36
2021-12-21 00:41:00,,0825.4,4.99,0.00,27.4,26.4,00.0,36.4,29.0,06.5,0000.0,0000.62,0000.42,0000.36
2021-12-21 00:42:00,,0825.5,5.01,0.00,27.3,26.4,00.0,36.4,29.0,06.6,0000.0,0001.52,0000.42,0000.36
2021-12-21 00:43:00,,0825.5,5.00,0.00,27.3,26.3,00.0,36.4,28.9,06.6,0000.0,0001.83,0000.43,0000.36
2021-12-21 00:44:00,,0825.5,4.99,0.00,27.3,26.3,00.0,36.4,28.8,06.6,0000.0,0001.83,0000.43,0000.35
2021-12-21 00:45:00,,0825.5,5.02,0.00,27.3,26.3,00.0,36.3,28.9,06.6,0000.0,0001.86,0000.44,0000.36
2021-12-21 00:46:00,,0825.6,5.00,0.00,27.3,26.3,00.0,36.3,28.9,06.5,0000.0,0001.95,0000.46,0000.36
2021-12-21 00:47:00,,0825.6,5.00,0.00,27.3,26.3,00.0,36.3,29.0,06.5,0000.0,0002.10,0000.47,0000.37
2021-12-21 00:48:00,,0825.7,4.99,0.00,27.3,26.3,00.0,36.3,29.0,06.5,0000.0,0005.68,0001.03,0000.60
2021-12-21 00:49:00,,0826.2,5.01,0.00,27.3,26.3,00.0,36.3,29.0,06.5,0000.0,0009.42,0002.09,0001.10
2021-12-21 00:50:00,,0825.8,4.99,0.00,27.3,26.3,00.0,36.3,28.9,06.6,0000.0,0012.48,0003.20,0001.67
2021-12-21 00:51:00,,0826.0,5.00,0.00,27.2,26.3,00.0,36.3,28.9,06.7,0000.0,0014.42,0003.88,0002.18
2021-12-21 00:52:00,,0825.7,5.01,0.00,27.2,26.3,00.0,36.3,28.9,06.7,0000.0,0016.30,0004.43,0002.65
2021-12-21 00:53:00,,0825.7,4.99,0.00,27.2,26.3,00.0,36.3,28.9,06.7,0000.0,0018.11,0004.94,0003.09
2021-12-21 00:54:00,,0825.9,5.02,0.00,27.2,26.2,00.0,36.3,28.9,06.7,0000.0,0020.01,0005.53,0003.39
2021-12-21 00:55:00,,0825.9,4.99,0.00,27.2,26.2,00.0,36.3,28.9,06.7,0000.0,0023.34,0006.10,0003.65
2021-12-21 00:56:00,,0825.9,5.01,0.00,27.2,26.2,00.0,36.2,28.9,06.7,0000.0,0027.35,0006.69,0003.94
2021-12-21 00:57:00,,0825.7,5.01,0.00,27.2,26.2,00.0,36.2,28.9,06.8,0000.0,0031.21,0007.34,0004.27
2021-12-21 00:58:00,,0825.7,4.99,0.00,27.1,26.2,00.0,36.2,28.8,06.9,0000.0,0035.41,0008.05,0004.57
2021-12-21 00:59:00,,0825.7,4.99,0.00,27.1,26.2,00.0,36.2,28.8,06.9,0000.0,0036.09,0008.40,0004.78
